DateTime,F1_A11,F1_S11,BsB_S11,BsG_S11,BsR_S11,BbsB_S11,BbsG_S11,BbsR_S11,BaB_A11,BaG_A11,BaR_A11,T_S11,U_S11,P_S11,T1_A11
2016-12-24T00:00:00Z,0000380,21000600,,,,,,,,,,24.5,00.0,0633.4,34.6
2016-12-24T00:01:00Z,0000380,21000600,,,,,,,,,,24.5,00.0,0633.4,34.6
2016-12-24T00:02:00Z,0000380,21000600,,,,,,,,,,24.5,00.0,0633.4,34.6
2016-12-24T00:03:00Z,0000380,61000600,,,,,,,,,,24.5,00.0,0633.4,34.6
2016-12-24T00:04:00Z,0000380,41000600,0000.38,0000.93,0000.81,-000.40,0000.01,0000.25,-000.03,-000.18,-000.53,24.4,00.0,0634.4,34.5
2016-12-24T00:05:00Z,0000380,01000600,-001.10,0000.41,0000.10,-000.11,0000.11,0000.20,0000.09,0000.01,0000.02,24.4,00.0,0634.5,34.5
2016-12-24T00:06:00Z,0000380,01000600,0001.11,0000.58,0000.22,0000.07,-000.12,0000.43,0000.08,0000.08,0000.20,24.4,00.0,0634.5,34.5
2016-12-24T00:07:00Z,0000380,01000600,0000.56,0000.36,0001.02,-000.37,0000.17,0000.13,0000.00,-000.00,-000.10,24.4,00.0,0634.5,34.5
2016-12-24T00:08:00Z,0000380,01000600,0000.03,0000.87,0000.77,0000.39,-000.09,0000.01,0000.12,-000.05,0000.04,24.4,00.0,0634.5,34.5
2016-12-24T00:09:00Z,0000380,01000600,0000.78,-000.36,0000.20,-000.28,-000.04,0000.31,-000.06,0000.38,-000.03,24.3,00.0,0634.5,34.5
2016-12-24T00:10:00Z,0000380,01000600,-000.49,0000.54,0000.33,-000.28,0000.30,0000.16,-000.01,-000.25,0000.01,24.3,00.0,0634.5,34.5
2016-12-24T00:11:00Z,0000380,01000600,0000.94,-000.12,0000.42,-000.27,0000.01,0000.39,0000.10,0000.03,-000.15,24.3,00.0,0634.5,34.5
2016-12-24T00:12:00Z,0000380,01000600,0000.58,0000.37,0000.42,0000.12,-000.10,-000.22,-000.08,-000.06,0000.35,24.3,00.0,0634.5,34.5
2016-12-24T00:13:00Z,0000380,01000600,0000.05,0000.03,0000.88,0000.42,0000.03,0000.63,-000.02,0000.03,-000.30,24.3,00.0,0634.5,34.5
2016-12-24T00:14:00Z,0000380,01000600,0000.14,0000.71,0000.18,0000.08,0000.27,0000.25,0000.08,-000.01,0000.06,24.3,00.0,0634.5,34.5
2016-12-24T00:15:00Z,0000380,01000600,0000.28,0000.01,0000.61,0000.18,-000.28,0000.24,0000.09,0000.09,0000.07,24.3,00.0,0634.5,34.5
2016-12-24T00:16:00Z,0000380,01000600,-000.20,-000.13,0000.26,-000.12,-000.02,0000.56,-000.17,0000.03,0000.08,24.3,00.0,0634.5,34.5
2016-12-24T00:17:00Z,0000380,01000600,0000.31,-000.04,0000.95,0000.03,0000.23,0000.20,0000.25,-000.14,-000.14,24.3,00.0,0634.5,34.5
2016-12-24T00:18:00Z,0000380,01000600,0000.50,0000.79,0000.40,-000.39,-000.23,0000.21,-000.03,0000.13,0000.10,24.3,00.0,0634.5,34.5
2016-12-24T00:19:00Z,0000380,01000600,0000.64,0000.63,0000.54,-000.16,-000.37,0000.20,-000.09,-000.09,0000.03,24.3,00.0,0634.5,34.5
2016-12-24T00:20:00Z,0000380,01000600,-001.16,-000.06,0000.61,-000.35,0000.37,-000.36,-000.04,0000.15,0000.02,24.3,00.0,0634.5,34.5
2016-12-24T00:21:00Z,0000380,01000600,0000.48,0000.59,0000.72,-000.35,-000.30,0000.23,0000.28,-000.19,-000.51,24.2,00.0,0634.5,34.5
2016-12-24T00:22:00Z,0000380,01000600,0001.16,-000.17,0000.02,0000.31,-000.27,-000.20,-000.22,0000.19,0000.52,24.2,00.0,0634.5,34.5
2016-12-24T00:23:00Z,0000380,01000600,0000.11,0000.34,0001.10,-000.17,0000.03,0000.68,0000.10,-000.00,0000.04,24.2,00.0,0634.5,34.5
2016-12-24T00:24:00Z,0000380,01000600,0000.32,0000.59,0000.48,-000.03,0000.13,0000.13,0000.08,-000.06,-000.22,24.2,00.0,0634.5,34.5
2016-12-24T00:25:00Z,0000380,01000600,0000.05,0000.09,0000.92,0000.31,-000.11,0000.25,-000.04,-000.03,0000.09,24.2,00.0,0634.5,34.5
2016-12-24T00:26:00Z,0000380,01000600,0000.82,-000.25,0000.75,-000.69,0000.01,-000.09,-000.00,0000.14,0000.01,24.2,00.0,0634.5,34.5
2016-12-24T00:27:00Z,0000380,01000600,0001.07,0000.19,0001.13,-000.76,0000.22,0000.09,-000.06,0000.01,-000.22,24.2,00.0,0634.5,34.5
2016-12-24T00:28:00Z,0000380,01000600,-000.14,0000.46,0000.20,0000.59,-000.11,-000.02,0000.10,-000.10,0000.06,24.2,00.0,0634.5,34.5
2016-12-24T00:29:00Z,0000380,01000600,0000.84,0001.48,0000.47,-000.15,0000.23,0000.23,0000.07,-000.02,-000.06,24.2,00.0,0634.5,34.5
2016-12-24T00:30:00Z,0000380,01000600,0001.01,0000.43,0000.68,0000.76,0000.36,-000.13,0000.10,0000.30,0000.39,24.1,00.0,0634.5,34.5
2016-12-24T00:31:00Z,0000380,01000600,0000.31,0000.38,0000.37,0000.01,-000.08,0000.11,-000.07,-000.18,0000.08,24.1,00.0,0634.5,34.5
2016-12-24T00:32:00Z,0000380,01000600,0000.80,0000.18,0000.64,-000.07,0000.21,0000.20,0000.03,-000.01,-000.01,24.1,00.0,0634.5,34.5
2016-12-24T00:33:00Z,0000380,01000600,0001.15,0000.56,0000.66,-000.26,-000.04,0000.10,0000.03,0000.07,-000.41,24.1,00.0,0634.5,34.5
2016-12-24T00:34:00Z,0000380,01000600,0000.62,0000.28,0000.76,0000.34,-000.39,-000.03,0000.04,0000.06,0000.38,24.1,00.0,0634.5,34.5
2016-12-24T00:35:00Z,0000380,01000600,-000.11,0000.75,0000.27,-000.11,-000.06,0000.11,-000.21,-000.09,-000.28,24.1,00.0,0634.5,34.5
2016-12-24T00:36:00Z,0000380,01000600,0001.23,0000.61,0000.48,0000.18,-000.20,0000.26,0000.10,0000.14,0000.14,24.1,00.0,0634.5,34.5
2016-12-24T00:37:00Z,0000380,01000600,-000.28,-000.10,0000.46,0000.32,0000.50,-000.56,0000.06,-000.12,0000.05,24.1,00.0,0634.5,34.5
2016-12-24T00:38:00Z,0000380,01000600,0000.87,-000.24,0000.59,0000.06,0000.11,0000.22,0000.06,0000.12,0000.15,24.1,00.0,0634.5,34.5
2016-12-24T00:39:00Z,0000380,01000600,0001.16,0000.45,0000.61,-000.36,-000.17,0000.05,-000.17,-000.04,-000.02,24.1,00.0,0634.5,34.5
2016-12-24T00:40:00Z,0000380,01000600,0000.48,0000.72,0000.23,-000.37,-000.02,0000.49,0000.09,-000.03,-000.12,24.1,00.0,0634.5,34.5
2016-12-24T00:41:00Z,0000380,01000600,-000.27,0000.17,0000.30,0000.11,-000.01,0000.09,0000.10,0000.07,-000.17,24.1,00.0,0634.5,34.5
2016-12-24T00:42:00Z,0000380,01000600,0001.24,0000.42,0000.28,-000.35,0000.26,0000.20,-000.04,-000.14,0000.12,24.1,00.0,0634.6,34.5
2016-12-24T00:43:00Z,0000380,01000600,-000.17,0000.16,0000.37,0000.25,0000.15,0000.15,-000.09,0000.14,0000.03,24.1,00.0,0634.6,34.5
2016-12-24T00:44:00Z,0000380,01000600,0000.69,0000.87,0000.30,0001.03,0000.19,0000.15,0000.04,-000.10,0000.06,24.1,00.0,0634.6,34.5
2016-12-24T00:45:00Z,0000380,01000600,0000.07,0000.19,0000.09,-000.36,0000.14,-000.22,0000.13,0000.15,-000.00,24.0,00.0,0634.6,34.5
2016-12-24T00:46:00Z,0000380,01000600,0000.68,0000.01,0000.74,-000.01,0000.14,-000.07,-000.10,-000.09,-000.01,24.1,00.0,0634.7,34.5
2016-12-24T00:47:00Z,0000380,01000600,0000.78,-000.05,0000.29,-000.22,-000.13,0000.17,-000.17,-000.06,-000.15,24.1,00.0,0634.6,34.5
2016-12-24T00:48:00Z,0000380,01000600,0000.25,0000.60,0000.77,0000.44,-000.04,0000.57,0000.12,0000.13,0000.01,24.1,00.0,0634.6,34.5
2016-12-24T00:49:00Z,0000380,01000600,0001.29,0000.49,0000.67,-000.48,0000.11,0000.17,0000.08,-000.10,0000.13,24.1,00.0,0634.6,34.5
2016-12-24T00:50:00Z,0000380,01000600,0000.08,0000.28,0000.06,-000.57,-000.14,-000.16,-000.08,-000.03,0000.06,24.0,00.0,0634.7,34.5
2016-12-24T00:51:00Z,0000380,01000600,-000.31,0000.66,0000.30,-000.44,-000.22,-000.03,0000.01,0000.09,-000.09,24.1,00.0,0634.7,34.5
2016-12-24T00:52:00Z,0000380,01000600,0000.45,-000.13,-000.15,0000.18,0000.06,0000.12,0000.01,0000.04,0000.01,24.1,00.0,0634.7,34.5
2016-12-24T00:53:00Z,0000380,01000600,-000.63,0000.15,0000.42,0000.38,-000.15,0000.12,0000.08,0000.07,-000.16,24.1,00.0,0634.7,34.5
2016-12-24T00:54:00Z,0000380,01000600,0000.56,0000.59,0000.22,-000.04,-000.04,0000.17,-000.11,0000.10,0000.30,24.0,00.0,0634.7,34.5
2016-12-24T00:55:00Z,0000380,01000600,0001.07,-000.24,0000.62,-000.17,0000.06,-000.11,0000.02,-000.23,-000.07,24.0,00.0,0634.7,34.5
2016-12-24T00:56:00Z,0000380,01000600,0001.17,0000.24,0000.08,0000.25,-000.10,0000.09,0000.13,0000.16,-000.20,24.1,00.0,0634.7,34.5
2016-12-24T00:57:00Z,0000380,41000600,,,,,,,,,,24.1,00.0,0634.8,34.5
2016-12-24T00:58:00Z,0000380,61000600,,,,,,,,,,24.0,00.0,0633.7,34.5
2016-12-24T00:59:00Z,0000380,21000600,,,,,,,,,,24.1,00.0,0633.7,34.5
2016-12-24T01:00:00Z,0000380,21000600,,,,,,,,,,24.1,00.0,0633.7,34.6
2016-12-24T01:01:00Z,0000380,21000600,,,,,,,,,,24.1,00.0,0633.7,34.6
2016-12-24T01:02:00Z,0000380,21000600,,,,,,,,,,24.1,00.0,0633.7,34.6
2016-12-24T01:03:00Z,0000380,61000600,,,,,,,,,,24.1,00.0,0633.7,34.5
2016-12-24T01:04:00Z,0000380,41000600,0000.79,-000.44,0000.29,0000.45,-000.10,-000.08,-000.03,0000.07,0000.19,24.1,00.0,0634.6,34.5
2016-12-24T01:05:00Z,0000380,01000600,0000.12,0000.14,0000.57,0001.18,0000.20,0000.48,0000.26,-000.03,-000.05,24.1,00.0,0634.6,34.5
2016-12-24T01:06:00Z,0000380,01000600,-000.47,0000.81,0000.40,-000.05,-000.43,0000.17,-000.13,0000.08,0000.01,24.1,00.0,0634.6,34.5
2016-12-24T01:07:00Z,0000380,01000600,-000.08,0000.86,0000.74,0000.48,-000.25,0000.28,0000.11,-000.06,-000.00,24.1,00.0,0634.6,34.5
2016-12-24T01:08:00Z,0000380,01000600,0000.60,0000.60,-000.46,0000.08,0000.21,0000.14,-000.07,-000.03,-000.07,24.1,00.0,0634.6,34.5
2016-12-24T01:09:00Z,0000380,01000600,0000.06,0000.52,0000.45,0001.00,-000.21,-000.17,-000.02,-000.11,0000.32,24.1,00.0,0634.6,34.5
2016-12-24T01:10:00Z,0000380,01000600,-000.10,0000.32,0000.56,0000.32,-000.47,-000.05,0000.03,0000.29,-000.18,24.1,00.0,0634.6,34.5
2016-12-24T01:11:00Z,0000380,01000600,-001.01,-000.32,-000.09,0000.32,-000.05,-000.04,-000.17,0000.12,0000.03,24.1,00.0,0634.6,34.6
2016-12-24T01:12:00Z,0000380,01000600,0000.05,-000.46,0000.49,-000.42,0000.24,0000.33,0000.30,-000.04,-000.13,24.1,00.0,0634.6,34.5
2016-12-24T01:13:00Z,0000380,01000600,-001.06,0000.18,0000.36,-000.08,-000.22,0000.04,-000.04,-000.11,-000.12,24.1,00.0,0634.6,34.5
2016-12-24T01:14:00Z,0000380,01000600,-000.77,-000.12,0000.26,0000.70,0000.02,0000.31,0000.06,-000.11,0000.27,24.1,00.0,0634.7,34.5
2016-12-24T01:15:00Z,0000380,01000600,0000.16,0000.04,0000.31,0000.56,-000.03,0000.32,-000.08,0000.06,0000.07,24.1,00.0,0634.7,34.5
2016-12-24T01:16:00Z,0000380,01000600,0000.27,-000.17,-000.16,0000.08,-000.36,-000.18,-000.05,0000.18,-000.06,24.1,00.0,0634.7,34.5
2016-12-24T01:17:00Z,0000380,01000600,0000.09,0000.02,0000.32,-000.31,-000.39,0000.65,0000.06,-000.09,0000.12,24.1,00.0,0634.7,34.5
2016-12-24T01:18:00Z,0000380,01000600,-000.44,-000.24,0000.33,-000.64,-000.21,0000.35,0000.03,-000.01,0000.07,24.1,00.0,0634.7,34.5
2016-12-24T01:19:00Z,0000380,01000600,-000.33,-000.01,0000.86,-000.05,0000.01,-000.09,-000.12,-000.04,-000.36,24.1,00.0,0634.8,34.5
2016-12-24T01:20:00Z,0000380,01000600,0000.92,-000.65,0001.01,0000.41,-000.13,0000.19,0000.13,0000.01,0000.17,24.1,00.0,0634.8,34.5
2016-12-24T01:21:00Z,0000380,01000600,-000.32,-000.25,0000.16,-000.03,0000.12,0000.21,0000.14,0000.25,-000.19,24.1,00.0,0634.8,34.5
2016-12-24T01:22:00Z,0000380,01000600,-000.35,0000.20,0000.74,0000.82,0000.16,-000.05,-000.20,-000.12,0000.20,24.1,00.0,0634.8,34.5
2016-12-24T01:23:00Z,0000380,01000600,0000.19,-000.57,0000.20,-000.30,-000.05,0000.13,0000.10,0000.04,0000.08,24.1,00.0,0634.7,34.5
2016-12-24T01:24:00Z,0000380,01000600,-000.19,0000.21,0000.05,-000.17,0000.38,0000.13,0000.21,0000.04,0000.11,24.1,00.0,0634.8,34.5
2016-12-24T01:25:00Z,0000380,01000600,0000.23,0000.85,0000.63,0000.40,-000.45,0000.26,-000.13,0000.02,-000.05,24.1,00.0,0634.8,34.5
2016-12-24T01:26:00Z,0000380,01000600,0000.83,0000.04,0000.40,0000.98,0000.02,0000.29,0000.08,-000.03,-000.11,24.1,00.0,0634.8,34.5
2016-12-24T01:27:00Z,0000380,01000600,-000.56,0000.71,0000.53,-000.01,-000.23,0000.25,0000.17,0000.12,0000.28,24.1,00.0,0634.8,34.5
2016-12-24T01:28:00Z,0000380,01000600,-000.09,-000.49,0000.52,0000.51,-000.36,0000.24,-000.11,0000.05,-000.27,24.1,00.0,0634.7,34.5
2016-12-24T01:29:00Z,0000380,01000600,0000.48,0000.40,0000.52,0000.68,-000.14,0000.28,0000.08,-000.10,0000.01,24.1,00.0,0634.7,34.5
2016-12-24T01:30:00Z,0000380,01000600,0000.28,0000.55,0000.00,0000.42,-000.15,-000.10,0000.01,-000.15,0000.29,24.1,00.0,0634.8,34.5
2016-12-24T01:31:00Z,0000380,01000600,0000.64,0000.32,0000.08,0000.54,-000.55,0000.01,0000.07,0000.34,-000.36,24.1,00.0,0634.8,34.5
2016-12-24T01:32:00Z,0000380,01000600,-000.61,0000.12,-000.00,-000.58,0000.12,0000.62,-000.21,0000.01,0000.11,24.1,00.0,0634.8,34.5
2016-12-24T01:33:00Z,0000380,01000600,0000.22,0001.57,0000.55,-000.32,-000.14,-000.09,0000.13,-000.08,0000.03,24.1,00.0,0634.8,34.6
2016-12-24T01:34:00Z,0000380,01000600,-000.13,0000.12,0000.41,-000.09,-000.46,0000.10,0000.22,0000.04,0000.02,24.1,00.0,0634.8,34.6
2016-12-24T01:35:00Z,0000380,01000600,0001.57,0000.42,0000.51,0000.56,-000.21,0000.06,0000.01,0000.01,0000.05,24.1,00.0,0634.8,34.5
2016-12-24T01:36:00Z,0000380,01000600,-000.87,0000.59,0000.26,0000.57,0000.02,-000.26,-000.26,-000.01,0000.11,24.1,00.0,0634.7,34.5
2016-12-24T01:37:00Z,0000380,01000600,0000.50,0000.64,0000.57,0000.15,-000.13,-000.25,0000.04,0000.16,0000.10,24.1,00.0,0634.8,34.6
2016-12-24T01:38:00Z,0000380,01000600,-000.65,0000.15,0000.93,-000.06,-000.23,0000.41,0000.37,-000.01,-000.13,24.1,00.0,0634.8,34.6
2016-12-24T01:39:00Z,0000380,01000600,0000.25,-000.21,0000.44,0000.63,-000.06,0000.46,-000.10,-000.04,-000.22,24.1,00.0,0634.8,34.6
2016-12-24T01:40:00Z,0000380,01000600,-000.14,0001.16,0000.55,0000.10,0000.08,-000.11,-000.17,-000.06,0000.21,24.1,00.0,0634.8,34.6
2016-12-24T01:41:00Z,0000380,01000600,0000.25,-000.38,0000.48,0000.24,0000.07,0000.21,-000.03,0000.07,0000.20,24.1,00.0,0634.8,34.6
2016-12-24T01:42:00Z,0000380,01000600,0000.83,0000.46,0000.27,-000.26,0000.10,0000.19,0000.08,0000.11,-000.13,24.1,00.0,0634.8,34.6
2016-12-24T01:43:00Z,0000380,01000600,-000.86,-000.18,0000.03,0000.15,-000.19,0000.11,0000.05,0000.02,-000.06,24.2,00.0,0634.9,34.5
2016-12-24T01:44:00Z,0000380,01000600,0000.73,0000.01,0000.48,0000.49,-000.06,-000.06,-000.02,-000.02,0000.34,24.2,00.0,0634.9,34.5
2016-12-24T01:45:00Z,0000380,01000600,-000.96,-000.31,0000.20,0001.07,0000.09,-000.21,-000.11,-000.09,-000.31,24.2,00.0,0634.9,34.6
2016-12-24T01:46:00Z,0000380,01000600,0000.30,0000.13,0000.33,0000.27,-000.07,0000.34,0000.23,0000.13,0000.20,24.1,00.0,0634.9,34.6
2016-12-24T01:47:00Z,0000380,01000600,0000.25,0000.91,0000.38,0000.26,-000.15,-000.02,-000.17,-000.04,-000.22,24.2,00.0,0635.0,34.6
2016-12-24T01:48:00Z,0000380,01000600,0000.20,-000.31,0000.50,0000.78,-000.25,0000.02,-000.10,-000.08,0000.30,24.2,00.0,0635.0,34.6
2016-12-24T01:49:00Z,0000380,01000600,-000.09,0000.06,0000.63,0000.66,0000.24,0000.11,0000.12,0000.07,-000.35,24.2,00.0,0635.0,34.6
2016-12-24T01:50:00Z,0000380,01000600,-000.12,-000.20,0000.21,0000.44,-000.20,-000.29,0000.04,0000.02,0000.06,24.2,00.0,0635.0,34.6
2016-12-24T01:51:00Z,0000380,01000600,-001.16,-000.95,0000.63,-000.14,-000.38,0000.56,0000.10,0000.03,0000.34,24.2,00.0,0635.0,34.6
2016-12-24T01:52:00Z,0000380,01000600,-000.08,0000.05,0000.46,0000.53,0000.09,-000.02,0000.05,-000.06,-000.18,24.2,00.0,0635.0,34.6
2016-12-24T01:53:00Z,0000380,01000600,-000.01,-000.24,-000.58,0000.55,-000.10,-000.05,0000.05,0000.16,0000.42,24.2,00.0,0635.0,34.6
2016-12-24T01:54:00Z,0000380,01000600,0000.97,-000.57,0000.27,0000.40,-000.03,0000.21,-000.06,-000.13,-000.50,24.2,00.0,0635.0,34.6
2016-12-24T01:55:00Z,0000380,01000600,-000.01,0000.33,-000.04,0000.47,0000.05,0000.42,0000.20,0000.04,0000.05,24.2,00.0,0635.1,34.6
2016-12-24T01:56:00Z,0000380,01000600,-001.06,0000.04,0000.26,0000.13,0000.26,0000.26,-000.28,-000.00,-000.16,24.2,00.0,0635.1,34.6
2016-12-24T01:57:00Z,0000380,41000600,,,,,,,,,,24.3,00.0,0635.1,34.6
2016-12-24T01:58:00Z,0000380,61000600,,,,,,,,,,24.2,00.0,0634.1,34.6
2016-12-24T01:59:00Z,0000380,21000600,,,,,,,,,,24.2,00.0,0634.1,34.6
2016-12-24T02:00:00Z,0000380,21000600,,,,,,,,,,24.2,00.0,0634.1,34.6
2016-12-24T02:01:00Z,0000380,21000600,,,,,,,,,,24.2,00.0,0634.1,34.6
2016-12-24T02:02:00Z,0000380,21000600,,,,,,,,,,24.2,00.0,0634.1,34.6
2016-12-24T02:03:00Z,0000380,61000600,,,,,,,,,,24.3,00.0,0634.1,34.6
2016-12-24T02:04:00Z,0000380,41000600,-000.21,0000.20,0000.22,-000.71,0000.48,-000.00,0000.10,0000.03,0000.12,24.3,00.0,0635.0,34.6
2016-12-24T02:05:00Z,0000380,01000600,-000.46,0000.36,-000.30,0000.29,-000.19,0000.06,-000.09,-000.02,-000.04,24.3,00.0,0635.1,34.6
2016-12-24T02:06:00Z,0000380,01000600,-000.33,0000.38,-000.21,-000.24,-000.33,-000.13,0000.03,-000.09,0000.14,24.3,00.0,0635.1,34.6
2016-12-24T02:07:00Z,0000380,01000600,0000.77,0000.35,-000.16,0000.17,0000.06,-000.29,-000.02,0000.15,-000.07,24.3,00.0,0635.1,34.6
2016-12-24T02:08:00Z,0000380,01000600,0000.13,0000.77,0000.13,0000.38,0000.01,-000.23,0000.07,-000.05,-000.07,24.3,00.0,0635.1,34.6
2016-12-24T02:09:00Z,0000380,01000600,-000.04,0001.14,0000.04,0000.35,-000.01,-000.32,-000.27,-000.15,0000.10,24.3,00.0,0635.1,34.6
2016-12-24T02:10:00Z,0000380,01000600,0000.51,0001.05,-000.60,-000.36,-000.47,-000.38,0000.29,0000.09,-000.08,24.3,00.0,0635.1,34.6
2016-12-24T02:11:00Z,0000380,01000600,0001.61,0000.84,-000.43,-000.25,-000.34,-000.16,-000.22,0000.01,-000.12,24.3,00.0,0635.1,34.6
2016-12-24T02:12:00Z,0000380,01000600,0000.17,0001.36,0000.15,0000.05,-000.07,-000.27,0000.11,-000.15,-000.05,24.3,00.0,0635.1,34.6
2016-12-24T02:13:00Z,0000380,01000600,-001.32,0000.04,-000.21,-000.19,-000.18,-000.34,-000.01,0000.16,0000.34,24.3,00.0,0635.1,34.6
2016-12-24T02:14:00Z,0000380,01000600,0000.52,0000.83,-000.61,-000.65,-000.25,-000.26,-000.04,-000.03,0000.01,24.3,00.0,0635.1,34.6
2016-12-24T02:15:00Z,0000380,01000600,0001.08,0000.16,-000.63,-000.22,-000.27,-000.36,0000.05,0000.20,0000.02,24.3,00.0,0635.1,34.6
2016-12-24T02:16:00Z,0000380,01000600,0000.96,0000.18,-000.40,0000.08,-000.10,-000.12,0000.08,-000.17,-000.10,24.3,00.0,0635.1,34.6
2016-12-24T02:17:00Z,0000380,01000600,0000.18,-000.39,-000.08,-000.35,0000.09,0000.54,-000.07,0000.06,-000.09,24.4,00.0,0635.1,34.6
2016-12-24T02:18:00Z,0000380,01000600,-000.51,0000.19,-000.23,0000.51,-000.12,-000.39,0000.00,0000.07,-000.08,24.3,00.0,0635.1,34.6
2016-12-24T02:19:00Z,0000380,01000600,0000.56,0000.52,0000.20,-000.65,-000.12,-000.18,0000.03,0000.13,0000.16,24.4,00.0,0635.1,34.6
2016-12-24T02:20:00Z,0000380,01000600,0000.05,-000.06,-000.08,-000.57,-000.51,-000.24,0000.07,-000.13,-000.06,24.4,00.0,0635.1,34.6
2016-12-24T02:21:00Z,0000380,01000600,0000.48,0000.28,-000.10,-000.54,-000.24,-000.18,-000.13,-000.08,-000.03,24.4,00.0,0635.1,34.6
2016-12-24T02:22:00Z,0000380,01000600,-000.26,0000.37,0000.20,0000.10,0000.22,0000.25,0000.08,0000.15,-000.05,24.4,00.0,0635.0,34.6
2016-12-24T02:23:00Z,0000380,01000600,0000.32,-000.34,-000.11,-000.90,-000.26,0000.13,0000.09,0000.09,0000.23,24.4,00.0,0635.0,34.6
2016-12-24T02:24:00Z,0000380,01000600,-000.61,0000.55,0000.07,-000.34,0000.21,-000.16,-000.07,0000.10,-000.16,24.3,00.0,0635.1,34.6
2016-12-24T02:25:00Z,0000380,01000600,-000.50,0000.19,-000.18,-000.13,-000.06,0000.11,0000.24,-000.21,0000.32,24.4,00.0,0635.1,34.6
2016-12-24T02:26:00Z,0000380,01000600,-000.47,-000.01,0000.46,0000.26,-000.13,-000.22,-000.15,0000.07,-000.26,24.4,00.0,0635.0,34.6
2016-12-24T02:27:00Z,0000380,01000600,0000.11,0000.25,-000.05,-000.40,0000.16,0000.26,0000.14,0000.14,0000.16,24.4,00.0,0635.0,34.6
2016-12-24T02:28:00Z,0000380,01000600,0000.50,-000.22,-000.22,-000.63,0000.29,-000.36,-000.10,-000.11,0000.03,24.4,00.0,0635.0,34.6
2016-12-24T02:29:00Z,0000380,01000600,-000.27,0000.13,0000.11,-000.14,-000.08,-000.01,-000.06,-000.12,-000.13,24.4,00.0,0635.1,34.6
2016-12-24T02:30:00Z,0000380,01000600,-000.70,0000.43,-000.25,-000.37,0000.23,0000.22,0000.10,0000.04,0000.09,24.4,00.0,0635.0,34.6
2016-12-24T02:31:00Z,0000380,01000600,0000.02,-000.29,-000.09,-000.03,-000.22,-000.24,0000.08,0000.17,0000.02,24.4,00.0,0635.0,34.6
2016-12-24T02:32:00Z,0000380,01000600,-000.53,0000.27,-000.03,-000.36,-000.21,-000.03,-000.01,-000.09,0000.01,24.4,00.0,0635.0,34.6
2016-12-24T02:33:00Z,0000380,01000600,0001.09,0000.06,0000.08,-000.18,0000.31,-000.28,0000.01,0000.06,-000.08,24.4,00.0,0635.0,34.6
2016-12-24T02:34:00Z,0000380,01000600,0000.67,0000.06,0000.35,-000.07,0000.37,0000.42,0000.01,0000.11,0000.37,24.4,00.0,0635.0,34.6
2016-12-24T02:35:00Z,0000380,01000600,-000.22,0000.73,-000.11,0000.75,-000.24,-000.16,-000.05,-000.03,-000.06,24.4,00.0,0635.0,34.6
2016-12-24T02:36:00Z,0000380,01000600,0000.75,0000.33,-000.51,-000.52,0000.10,-000.29,0000.12,0000.13,-000.09,24.4,00.0,0635.0,34.6
2016-12-24T02:37:00Z,0000380,01000600,-000.04,0000.47,0000.29,-001.00,0000.03,-000.06,-000.03,-000.13,0000.09,24.4,00.0,0635.0,34.6
2016-12-24T02:38:00Z,0000380,01000600,0001.11,0000.88,0000.20,-000.38,-000.12,-000.29,0000.17,0000.15,-000.08,24.4,00.0,0635.0,34.6
2016-12-24T02:39:00Z,0000380,01000600,-000.06,0000.12,-000.07,0000.01,0000.06,0000.11,-000.13,-000.12,-000.03,24.4,00.0,0635.0,34.6
2016-12-24T02:40:00Z,0000380,01000600,0000.10,0000.85,-000.36,0000.10,-000.03,-000.44,0000.06,0000.09,-000.05,24.4,00.0,0635.1,34.6
2016-12-24T02:41:00Z,0000380,01000600,-000.62,-000.37,0000.06,-000.46,-000.14,-000.14,0000.06,0000.07,0000.16,24.4,00.0,0635.1,34.6
2016-12-24T02:42:00Z,0000380,01000600,-000.66,-000.54,0000.21,-000.66,-000.32,-000.06,-000.04,-000.05,-000.04,24.4,00.0,0635.1,34.6
2016-12-24T02:43:00Z,0000380,01000600,0000.63,-000.01,0000.23,-000.64,0000.17,-000.12,0000.06,-000.08,-000.17,24.4,00.0,0635.1,34.6
2016-12-24T02:44:00Z,0000380,01000600,-000.07,0000.21,0000.29,-000.66,0000.02,-000.08,0000.10,0000.19,0000.31,24.4,00.0,0635.1,34.6
2016-12-24T02:45:00Z,0000380,01000600,-000.18,-000.34,-000.05,-000.14,-000.29,-000.15,0000.08,-000.13,-000.07,24.4,00.0,0635.1,34.6
2016-12-24T02:46:00Z,0000380,01000600,0000.75,0000.03,-000.13,-000.12,-000.22,-000.31,-000.21,0000.18,-000.04,24.5,00.0,0635.2,34.6
2016-12-24T02:47:00Z,0000380,01000600,-000.01,0000.01,-000.07,-000.29,-000.31,0000.08,0000.12,-000.08,-000.08,24.5,00.0,0635.2,34.6
2016-12-24T02:48:00Z,0000380,01000600,0000.79,0000.39,0000.21,-000.05,0000.15,-000.22,-000.12,0000.04,0000.34,24.5,00.0,0635.2,34.6
2016-12-24T02:49:00Z,0000380,01000600,-000.19,0000.94,-000.65,-000.73,-000.12,-000.50,0000.13,-000.03,-000.13,24.5,00.0,0635.2,34.6
2016-12-24T02:50:00Z,0000380,01000600,-001.22,0000.73,-000.03,-000.25,-000.43,0000.14,0000.03,-000.03,-000.08,24.5,00.0,0635.2,34.6
2016-12-24T02:51:00Z,0000380,01000600,0001.33,0000.87,-000.42,-000.62,-000.19,-000.23,0000.10,0000.08,-000.28,24.5,00.0,0635.2,34.6
2016-12-24T02:52:00Z,0000380,01000600,-000.21,-000.03,0000.20,0000.13,-000.22,-000.60,-000.16,0000.03,0000.26,24.5,00.0,0635.2,34.6
2016-12-24T02:53:00Z,0000380,01000600,-000.29,0000.52,0000.45,-000.15,0000.32,-000.19,0000.10,-000.04,0000.25,24.5,00.0,0635.2,34.6
2016-12-24T02:54:00Z,0000380,01000600,0000.09,0000.70,0000.38,-000.72,-000.03,0000.15,-000.10,-000.04,-000.42,24.5,00.0,0635.3,34.6
2016-12-24T02:55:00Z,0000380,01000600,0000.39,0000.16,0000.16,-000.95,-000.04,0000.20,0000.14,0000.06,0000.25,24.5,00.0,0635.3,34.6
2016-12-24T02:56:00Z,0000380,01000600,-000.17,-000.26,-000.29,-000.16,0000.12,-000.05,-000.04,0000.04,0000.02,24.5,00.0,0635.3,34.6
2016-12-24T02:57:00Z,0000380,41000600,,,,,,,,,,24.5,00.0,0635.4,34.6
2016-12-24T02:58:00Z,0000380,61000600,,,,,,,,,,24.5,00.0,0634.3,34.6
2016-12-24T02:59:00Z,0000380,21000600,,,,,,,,,,24.5,00.0,0634.3,34.6
2016-12-24T03:00:00Z,0000380,21000600,,,,,,,,,,24.5,00.0,0634.3,34.6
2016-12-24T03:01:00Z,0000380,21000600,,,,,,,,,,24.5,00.0,0634.3,34.6
2016-12-24T03:02:00Z,0000380,21000600,,,,,,,,,,24.5,00.0,0634.3,34.6
2016-12-24T03:03:00Z,0000380,61000600,,,,,,,,,,24.6,00.0,0634.3,34.6
2016-12-24T03:04:00Z,0000380,41000600,0000.22,0000.69,0000.30,0000.25,0000.43,-000.04,0000.16,0000.17,0000.10,24.6,00.0,0635.3,34.6
2016-12-24T03:05:00Z,0000380,01000600,0000.90,0000.66,0000.24,0000.30,0000.47,0000.19,-000.14,0000.02,0000.06,24.6,00.0,0635.4,34.6
2016-12-24T03:06:00Z,0000380,01000600,-000.56,0000.36,0000.49,0000.01,0000.30,0000.19,-000.15,-000.17,-000.22,24.6,00.0,0635.4,34.6
2016-12-24T03:07:00Z,0000380,01000600,0001.31,0001.15,0000.30,0000.40,0000.10,0000.32,0000.14,0000.13,0000.09,24.6,00.0,0635.4,34.6
2016-12-24T03:08:00Z,0000380,01000600,0001.37,0000.65,0000.45,0000.70,0000.35,-000.12,0000.05,-000.02,0000.01,24.6,00.0,0635.4,34.6
2016-12-24T03:09:00Z,0000380,01000600,0000.92,0000.12,0000.39,-000.51,0000.66,0000.20,0000.09,-000.06,-000.01,24.6,00.0,0635.4,34.6
2016-12-24T03:10:00Z,0000380,01000600,0001.11,0000.72,0000.63,0000.38,0000.63,0000.41,-000.12,0000.12,-000.03,24.6,00.0,0635.4,34.6
2016-12-24T03:11:00Z,0000380,01000600,0000.99,0000.68,0000.32,0000.29,-000.02,0000.38,-000.05,-000.11,0000.04,24.5,00.0,0635.4,34.6